This is the latest recevied weather packets stored in our database for station/object IZ1UQG-2. If no packets are shown the sender has not sent any weather packets the latest 10 day(s).
| Time | Temp. | Humidity | Pressure | Rain* | Wind** | Luminosity | Snow |
|---|---|---|---|---|---|---|---|
| 1777939384 | 15.56° C | 66% | 1012.9 hPa | 0 mm | - | 0 W/m² | - |
| 1777939143 | 15° C | 66% | 1013 hPa | 0 mm | - | 0 W/m² | - |
| 1777939023 | 15° C | 66% | 1013 hPa | 0 mm | - | 0 W/m² | - |
| 1777938783 | 15.56° C | 66% | 1013.1 hPa | 0 mm | - | 0 W/m² | - |
| 1777938667 | 15.56° C | 65% | 1013.1 hPa | 0 mm | - | 0 W/m² | - |
| 1777937656 | 15.56° C | 63% | 1013.2 hPa | 0 mm | - | 0 W/m² | - |
| 1777936684 | 15.56° C | 66% | 1013.5 hPa | 0 mm | - | 0 W/m² | - |
| 1777935844 | 15.56° C | 64% | 1013.7 hPa | 0 mm | - | 0 W/m² | - |
| 1777935243 | 15.56° C | 65% | 1013.6 hPa | 0 mm | - | 0 W/m² | - |
| 1777935063 | 15.56° C | 65% | 1013.6 hPa | 0 mm | - | 0 W/m² | - |
| 1777935004 | 15.56° C | 65% | 1013.6 hPa | 0 mm | - | 0 W/m² | - |
| 1777934763 | 16.11° C | 64% | 1013.6 hPa | 0 mm | - | 0 W/m² | - |
| 1777934707 | 16.11° C | 64% | 1013.7 hPa | 0 mm | - | 0 W/m² | - |
| 1777934344 | 16.11° C | 64% | 1013.6 hPa | 0 mm | - | 0 W/m² | - |
| 1777934044 | 16.67° C | 63% | 1013.9 hPa | 0 mm | - | 0 W/m² | - |
| 1777933866 | 16.67° C | 63% | 1013.7 hPa | 0 mm | - | 0 W/m² | - |
| 1777932724 | 16.11° C | 63% | 1014 hPa | 0 mm | - | 0 W/m² | - |
| 1777932664 | 16.11° C | 63% | 1014 hPa | 0 mm | - | 0 W/m² | - |
| 1777932124 | 16.11° C | 63% | 1014.1 hPa | 0 mm | - | 0 W/m² | - |
| 1777931643 | 16.67° C | 62% | 1014.2 hPa | 0 mm | - | 0 W/m² | - |
| 1777931589 | 16.67° C | 62% | 1014.1 hPa | 0 mm | - | 0 W/m² | - |
| 1777930924 | 16.67° C | 62% | 1014.2 hPa | 0 mm | - | 0 W/m² | - |
| 1777929544 | 16.67° C | 62% | 1014.4 hPa | 0 mm | - | 0 W/m² | - |
| 1777929424 | 16.67° C | 62% | 1014.3 hPa | 0 mm | - | 0 W/m² | - |
| 1777929069 | 16.67° C | 62% | 1014.3 hPa | 0 mm | - | 0 W/m² | - |
* Rain latest hour (hover to see other rain measurements)
** Current wind speed in m/s (hover to see current wind gust speed)